Location: Goudex
(43.3760°N, 0.9543°E)
Time: 21:25:24
(UTC+00:00)

COSMOS 2455 - Pass Details

Date: 20 November 2019
Orbit: 902 x 908 km, 67.1° (Epoch: 09 December)

Event Time Altitude Azimuth Distance (km) Brightness Sun altitude
Exits shadow 04:54:47 41° 299° (WNW) 1,298 3.2 -21.7°
Maximum altitude 04:56:37 57° 246° (WSW) 1,060 2.9 -21.4°
Drops below altitude 10° 05:02:28 10° 169° (SSE) 2,578 5.4 -20.3°
Sets 05:04:59 0° 165° (SSE) 3,514 6.2 -19.9°
